Satellite: AO-51
Catalog number: 28375
Epoch time:      04351.23057755
Element set:     134
Inclination:       98.2397 deg
RA of node:        54.8049 deg
Eccentricity:    0.0085226
Arg of perigee:    63.6908 deg
Mean anomaly:     297.2999 deg
Mean motion:   14.40419992 rev/day
Decay rate:       1.39e-06 rev/day^2
Epoch rev:            2427
Checksum:              337

/EX
SB KEPS @ AMSAT  $ORB04351.W
Orbital Elements  04351.WEATHER

HR AMSAT ORBITAL ELEMENTS FOR WEATHER SATELLITES
FROM WA5QGD FORT WORTH,TX December 16, 2004
SEND SUBSCRIBE/UNSUBSCRIBE TO majordomo@amsat.org ONLY
BID: ORB04351.W
TO ALL RADIO AMATEURS BT

Satellite: NOAA-10
Catalog number: 16969
Epoch time:      04351.28439021
Element set:     518
Inclination:       98.7616 deg
RA of node:       350.6371 deg
Eccentricity:    0.0011673
Arg of perigee:   307.6867 deg
Mean anomaly:      52.3253 deg
Mean motion:   14.27230406 rev/day
Decay rate:       -5.6e-07 rev/day^2
Epoch rev:           94900
Checksum:              299

Satellite: NOAA-11
Catalog number: 19531
Epoch time:      04351.33332512
Element set:     376
Inclination:       98.8580 deg
RA of node:        73.9405 deg
Eccentricity:    0.0012563
Arg of perigee:   108.4947 deg
Mean anomaly:     251.7563 deg
Mean motion:   14.14743455 rev/day
Decay rate:       -8.8e-07 rev/day^2
Epoch rev:           83707
Checksum:              308

Satellite: NOAA-12
Catalog number: 21263
Epoch time:      04351.81772797
Element set:     865
Inclination:       98.6860 deg
RA of node:       337.7572 deg
Eccentricity:    0.0012056
Arg of perigee:   237.8695 deg
Mean anomaly:     122.1797 deg
Mean motion:   14.25437575 rev/day
Decay rate:        6.6e-07 rev/day^2
Epoch rev:           70630
Checksum:              333

Satellite: MET-3/5
Catalog number: 21655
Epoch time:      04351.16578892
Element set:     694
Inclination:       82.5558 deg
RA of node:       287.9443 deg
Eccentricity:    0.0013203
Arg of perigee:   336.9608 deg
Mean anomaly:      23.0914 deg
Mean motion:   13.16999477 rev/day
Decay rate:        5.1e-07 rev/day^2
Epoch rev:           64122
Checksum:              326

Satellite: MET-2/21
Catalog number: 22782
Epoch time:      04351.30882722
Element set:      81
Inclination:       82.5500 deg
RA of node:        46.0584 deg
Eccentricity:    0.0020882
Arg of perigee:   276.4944 deg
Mean anomaly:      83.3811 deg
Mean motion:   13.83576640 rev/day
Decay rate:       -2.7e-07 rev/day^2
Epoch rev:           57028
Checksum:              293

Satellite: OKEAN-4
Catalog number: 23317
Epoch time:      04351.18567329
Element set:     498
Inclination:       82.5411 deg
RA of node:        68.0036 deg
Eccentricity:    0.0023146
Arg of perigee:    22.8198 deg
Mean anomaly:     337.4066 deg
Mean motion:   14.82004693 rev/day
Decay rate:       5.84e-06 rev/day^2
Epoch rev:           54880
Checksum:              303

Satellite: NOAA-14
Catalog number: 23455
Epoch time:      04351.80978671
Element set:     399
Inclination:       99.1177 deg
RA of node:        30.9300 deg
Eccentricity:    0.0009615
Arg of perigee:   150.5877 deg
Mean anomaly:     209.6307 deg
Mean motion:   14.13518741 rev/day
Decay rate:        9.3e-07 rev/day^2
Epoch rev:           51382
Checksum:              311

Satellite: SICH-1
Catalog number: 23657
Epoch time:      04350.88083513
Element set:     301
Inclination:       82.5295 deg
RA of node:       209.0991 deg
Eccentricity:    0.0024596
Arg of perigee:     8.5099 deg
Mean anomaly:     351.6501 deg
Mean motion:   14.81026438 rev/day
Decay rate:       4.61e-06 rev/day^2
Epoch rev:           50082
Checksum:              288

Satellite: NOAA-15
Catalog number: 25338
Epoch time:      04351.86685443
Element set:     844
Inclination:       98.5166 deg
RA of node:       359.7384 deg
Eccentricity:    0.0010747
Arg of perigee:   166.6597 deg
Mean anomaly:     193.5344 deg
Mean motion:   14.24475022 rev/day
Decay rate:        8.0e-07 rev/day^2
Epoch rev:           34280
Checksum:              329

Satellite: RESURS
Catalog number: 25394
Epoch time:      04350.96866370
Element set:    0974
Inclination:      098.5634 deg
RA of node:       059.1962 deg
Eccentricity:    0.0001309
Arg of perigee:   009.0314 deg
Mean anomaly:     351.0888 deg
Mean motion:   14.24040814 rev/day
Decay rate:        2.4e-07 rev/day^2
Epoch rev:           33437
Checksum:              294

Satellite: FENGYUN1
Catalog number: 25730
Epoch time:      04350.86118742
Element set:     301
Inclination:       98.6046 deg
RA of node:       354.0056 deg
Eccentricity:    0.0013774
Arg of perigee:   264.2165 deg
Mean anomaly:      95.7418 deg
Mean motion:   14.11785502 rev/day
Decay rate:       1.73e-06 rev/day^2
Epoch rev:           28864
Checksum:              291

Satellite: OKEAN-0
Catalog number: 25860
Epoch time:      04350.85060961
Element set:    0305
Inclination:      097.7773 deg
RA of node:       018.6237 deg
Eccentricity:    0.0002124
Arg of perigee:   089.0321 deg
Mean anomaly:     271.1132 deg
Mean motion:   14.73170741 rev/day
Decay rate:       2.18e-06 rev/day^2
Epoch rev:           29101
Checksum:              261

Satellite: NOAA-16
Catalog number: 26536
Epoch time:      04351.85125241
Element set:     149
Inclination:       98.9900 deg
RA of node:       303.5002 deg
Eccentricity:    0.0009939
Arg of perigee:   219.9699 deg
Mean anomaly:     140.1229 deg
Mean motion:   14.12187482 rev/day
Decay rate:       1.72e-06 rev/day^2
Epoch rev:           21832
Checksum:              300

